Tracking 17884 objects as of 3-December-2016
HD Live streaming from Space Station
objects crossing your sky now

W75/ABS-1B (HOT BIRD 3)

Track W75/ABS-1B (HOT BIRD 3) now!
W75/ABS-1B (HOT BIRD 3) is classified as:


NORAD ID: 24931
Int'l Code: 1997-049A
Perigee: 35,099.6 km
Apogee: 35,272.9 km
Inclination: 6.0 °
Period: 1,405.2 minutes
Semi major axis: 41557 km
RCS: 15.8489 m2 (large)
Launch date: September 2, 1997
Source: European Telecommunications Satellite Organization (EUTE)
Launch site: FRENCH GUIANA (FRGUI)

Cable programming; direct-to-home broadcasting; Europe, North Africa, 20 active channels
Your satellite tracking list
Your tracking list is empty





NASA's NSSDC Master Catalog

Two Line Element Set (TLE):
1 24931U 97049A   16336.14413525 -.00000024  00000-0  00000+0 0  9998
2 24931   5.9773  55.2053 0020853 301.9265  91.1324  1.02478468 71004
Source of the keplerian elements: AFSPC